Location: Sperry Observatory
(40.6664°N, 74.3236°W)
Time: 00:30:03
(UTC-04:00)

UOSAT-12 - Visible Passes

Search period start: 03 September 2015 00:00
Search period end: 13 September 2015 00:00
Orbit: 602 x 653 km, 64.6° (Epoch: 02 September)

Date Brightness Start Highest point End Pass type
(mag) Time Alt. Az. Time Alt. Az. Time Alt. Az.
03 Sep 9.6 02:38:20 19° NNE 02:38:20 19° NNE 02:39:46 10° NNE visible
03 Sep 9.6 04:15:38 11° NW 04:16:17 11° NW 04:17:30 10° NNW visible
04 Sep 9.5 02:57:52 19° N 02:57:52 19° N 02:59:30 10° NNE visible
05 Sep 9.7 03:17:22 15° NNW 03:17:22 15° NNW 03:18:50 10° N visible
06 Sep 10.3 01:59:33 11° NNE 01:59:33 11° NNE 01:59:49 10° NNE visible
07 Sep 10.2 02:19:00 12° N 02:19:00 12° N 02:19:27 10° N visible
08 Sep 10.2 02:38:27 11° N 02:38:27 11° N 02:38:40 10° N visible
